timestamp,surface_pressure_avg,surface_temp_avg,battery_voltage,lat,long
2019-03-26 00:00:00+00:00,272.0448,1.4,12.89,47.84626,-54.09684
2019-03-26 00:10:00+00:00,273.4931,1.32,12.81,47.84626,-54.09684
2019-03-26 00:20:00+00:00,275.783,1.29,12.89,47.84626,-54.09684
2019-03-26 00:30:00+00:00,279.6114,1.19,12.89,47.84626,-54.09684
2019-03-26 00:40:00+00:00,286.3464,1.2,12.97,47.84626,-54.09684
2019-03-26 00:50:00+00:00,288.9414,1.07,12.97,47.84626,-54.09684
2019-03-26 01:00:00+00:00,296.0714,1.09,12.89,47.84626,-54.09684
2019-03-26 01:10:00+00:00,303.0231,1.0,12.81,47.84626,-54.09684
2019-03-26 01:20:00+00:00,311.3762,1.0,12.89,47.84626,-54.09684
2019-03-26 01:30:00+00:00,313.8697,1.0,12.89,47.84626,-54.09684
2019-03-26 01:40:00+00:00,314.8547,0.92,12.89,47.84626,-54.09684
2019-03-26 01:50:00+00:00,321.0696,0.9,12.97,47.84626,-54.09684
2019-03-26 02:00:00+00:00,326.6979,0.9,12.81,47.84626,-54.09684
2019-03-26 02:10:00+00:00,327.6063,0.9,12.81,47.84626,-54.09684
2019-03-26 02:20:00+00:00,327.0563,0.9,12.89,47.84626,-54.09684
2019-03-26 02:30:00+00:00,331.3979,0.9,12.89,47.84626,-54.09684
2019-03-26 02:40:00+00:00,334.5413,0.9,12.89,47.84626,-54.09684
2019-03-26 02:50:00+00:00,336.2347,0.9,12.89,47.84626,-54.09684
2019-03-26 03:00:00+00:00,340.7562,0.9,12.81,47.84626,-54.09684
2019-03-26 03:10:00+00:00,344.008,0.9,12.73,47.84626,-54.09684
2019-03-26 03:20:00+00:00,345.413,0.9,12.81,47.84626,-54.09684
2019-03-26 03:30:00+00:00,343.6763,0.9,12.81,47.84626,-54.09684
2019-03-26 03:40:00+00:00,342.033,0.88,12.89,47.84626,-54.09684
2019-03-26 03:50:00+00:00,341.3079,0.87,12.89,47.84626,-54.09684
2019-03-26 04:00:00+00:00,337.9496,0.89,12.81,47.84626,-54.09684
2019-03-26 04:10:00+00:00,334.613,0.86,12.73,47.84626,-54.09684
2019-03-26 04:20:00+00:00,334.1163,0.73,12.81,47.84626,-54.09684
2019-03-26 04:30:00+00:00,333.2781,0.7,12.81,47.84626,-54.09684
2019-03-26 04:40:00+00:00,333.5597,0.69,12.89,47.84626,-54.09684
2019-03-26 04:50:00+00:00,330.9196,0.66,12.89,47.84626,-54.09684
2019-03-26 05:00:00+00:00,329.3812,0.67,12.81,47.84626,-54.09684
2019-03-26 05:10:00+00:00,322.5197,0.69,12.73,47.84626,-54.09684
2019-03-26 05:20:00+00:00,314.478,0.7,12.81,47.84626,-54.09684
2019-03-26 05:30:00+00:00,305.2863,0.7,12.81,47.84626,-54.09684
2019-03-26 05:40:00+00:00,297.2281,0.72,12.81,47.84626,-54.09684
2019-03-26 05:50:00+00:00,289.9763,0.8,12.81,47.84626,-54.09684
2019-03-26 06:00:00+00:00,284.0847,0.89,12.73,47.84626,-54.09684
2019-03-26 06:10:00+00:00,279.5264,0.91,12.65,47.84626,-54.09684
2019-03-26 06:20:00+00:00,273.1597,1.0,12.73,47.84626,-54.09684
2019-03-26 06:30:00+00:00,266.1265,1.0,12.81,47.84626,-54.09684
2019-03-26 06:40:00+00:00,258.668,1.0,12.81,47.84626,-54.09684
2019-03-26 06:50:00+00:00,246.7298,1.0,12.81,47.84626,-54.09684
2019-03-26 07:00:00+00:00,234.9515,1.0,12.73,47.84626,-54.09684
2019-03-26 07:10:00+00:00,225.3315,1.0,12.65,47.84626,-54.09684
2019-03-26 07:20:00+00:00,212.7848,1.0,12.73,47.84626,-54.09684
2019-03-26 07:30:00+00:00,203.1365,1.0,12.73,47.84626,-54.09684
2019-03-26 07:40:00+00:00,200.5414,1.0,12.73,47.84626,-54.09684
2019-03-26 07:50:00+00:00,196.8148,1.0,12.81,47.84626,-54.09684
2019-03-26 08:00:00+00:00,186.9631,0.99,12.65,47.84626,-54.09684
2019-03-26 08:10:00+00:00,184.4248,0.98,12.65,47.84626,-54.09684
2019-03-26 08:20:00+00:00,186.7031,0.97,12.73,47.84626,-54.09684
2019-03-26 08:30:00+00:00,179.7715,0.95,12.73,47.84626,-54.09684
2019-03-26 08:40:00+00:00,173.8348,0.91,12.73,47.84626,-54.09684
2019-03-26 08:50:00+00:00,180.7632,0.9,12.73,47.84626,-54.09684
2019-03-26 09:00:00+00:00,180.4731,0.9,12.65,47.84626,-54.09684
2019-03-26 09:10:00+00:00,173.9331,0.9,12.65,47.84626,-54.09684
2019-03-26 09:20:00+00:00,180.6031,0.9,12.65,47.84626,-54.09684
2019-03-26 09:30:00+00:00,186.5164,0.9,12.73,47.84626,-54.09684
2019-03-26 09:40:00+00:00,184.0998,0.9,12.73,47.84626,-54.09684
2019-03-26 09:50:00+00:00,188.5964,0.9,12.73,47.84626,-54.09684
2019-03-26 10:00:00+00:00,199.7381,0.9,12.65,47.84626,-54.09684
2019-03-26 10:10:00+00:00,199.9597,0.89,12.65,47.84626,-54.09684
2019-03-26 10:20:00+00:00,197.1181,0.9,12.73,47.84626,-54.09684
2019-03-26 10:30:00+00:00,201.4948,0.9,12.81,47.84626,-54.09684
2019-03-26 10:40:00+00:00,205.5931,0.9,12.97,47.84626,-54.09684
2019-03-26 10:50:00+00:00,205.2165,0.8,13.05,47.84626,-54.09684
2019-03-26 11:00:00+00:00,205.0714,0.8,13.05,47.84626,-54.09684
2019-03-26 11:10:00+00:00,209.4081,0.8,12.97,47.84626,-54.09684
2019-03-26 11:20:00+00:00,216.3998,0.8,13.29,47.84626,-54.09684
2019-03-26 11:30:00+00:00,220.2714,0.8,13.6,47.84626,-54.09684
2019-03-26 11:40:00+00:00,224.8248,0.8,13.92,47.84626,-54.09684
2019-03-26 11:50:00+00:00,227.2814,0.8,14.24,47.84626,-54.09684
2019-03-26 12:00:00+00:00,226.3048,0.8,14.32,47.84626,-54.09684
2019-03-26 12:10:00+00:00,228.6397,0.8,14.24,47.84626,-54.09684
2019-03-26 12:20:00+00:00,235.4914,0.8,14.48,47.84626,-54.09684
2019-03-26 12:30:00+00:00,241.3014,0.77,14.56,47.84626,-54.09684
2019-03-26 12:40:00+00:00,243.5281,0.77,14.8,47.84626,-54.09684
2019-03-26 12:50:00+00:00,245.4281,0.6,14.96,47.84626,-54.09684
2019-03-26 13:00:00+00:00,251.6881,0.59,14.96,47.84626,-54.09684
2019-03-26 13:10:00+00:00,259.413,0.55,14.72,47.84626,-54.09684
2019-03-26 13:20:00+00:00,264.2981,0.5,15.11,47.84626,-54.09684
2019-03-26 13:30:00+00:00,267.3998,0.4,15.04,47.84626,-54.09684
2019-03-26 13:40:00+00:00,276.9914,0.2,15.04,47.84626,-54.09684
2019-03-26 13:50:00+00:00,284.4397,0.2,14.96,47.84626,-54.09684
2019-03-26 14:00:00+00:00,287.1514,0.13,14.72,47.84626,-54.09684
2019-03-26 14:10:00+00:00,291.9297,0.1,14.72,47.84626,-54.09684
2019-03-26 14:20:00+00:00,300.278,0.1,14.88,47.84626,-54.09684
2019-03-26 14:30:00+00:00,303.298,0.1,14.88,47.84626,-54.09684
2019-03-26 14:40:00+00:00,304.698,0.1,15.04,47.84626,-54.09684
2019-03-26 14:50:00+00:00,310.0663,0.0,15.2,47.84626,-54.09684
2019-03-26 15:00:00+00:00,311.6896,0.03,14.96,47.84626,-54.09684
2019-03-26 15:10:00+00:00,312.288,0.1,14.88,47.84626,-54.09684
2019-03-26 15:20:00+00:00,314.5247,0.1,14.88,47.84626,-54.09684
2019-03-26 15:30:00+00:00,317.7629,0.07,14.96,47.84626,-54.09684
2019-03-26 15:40:00+00:00,320.173,0.1,14.96,47.84626,-54.09684
2019-03-26 15:50:00+00:00,319.5797,0.0,14.88,47.84626,-54.09684
2019-03-26 16:00:00+00:00,319.2313,0.0,14.96,47.84626,-54.09684
2019-03-26 16:10:00+00:00,317.1447,0.04,14.96,47.84626,-54.09684
2019-03-26 16:20:00+00:00,317.2313,0.0,14.72,47.84626,-54.09684
2019-03-26 16:30:00+00:00,319.908,0.0,14.72,47.84626,-54.09684
2019-03-26 16:40:00+00:00,318.6546,0.0,14.72,47.84626,-54.09684
2019-03-26 16:50:00+00:00,313.688,0.08,14.88,47.84626,-54.09684
2019-03-26 17:00:00+00:00,310.7964,0.01,14.56,47.84626,-54.09684
2019-03-26 17:10:00+00:00,310.778,0.06,14.48,47.84626,-54.09684
2019-03-26 17:20:00+00:00,307.343,0.07,14.8,47.84626,-54.09684
2019-03-26 17:30:00+00:00,302.9147,0.05,14.64,47.84626,-54.09684
2019-03-26 17:40:00+00:00,302.0681,0.04,14.56,47.84626,-54.09684
2019-03-26 17:50:00+00:00,298.838,0.01,14.56,47.84626,-54.09684
2019-03-26 18:00:00+00:00,289.9147,0.06,14.48,47.84626,-54.09684
2019-03-26 18:10:00+00:00,287.0447,0.07,14.48,47.84626,-54.09684
2019-03-26 18:20:00+00:00,280.3547,0.1,14.64,47.84626,-54.09684
2019-03-26 18:30:00+00:00,270.3464,0.23,14.56,47.84626,-54.09684
2019-03-26 18:40:00+00:00,263.4147,0.3,14.56,47.84626,-54.09684
2019-03-26 18:50:00+00:00,261.9314,0.2,14.48,47.84626,-54.09684
2019-03-26 19:00:00+00:00,251.2814,0.3,14.4,47.84626,-54.09684
2019-03-26 19:10:00+00:00,239.7114,0.4,14.32,47.84626,-54.09684
2019-03-26 19:20:00+00:00,238.0265,0.4,14.4,47.84626,-54.09684
2019-03-26 19:30:00+00:00,231.2964,0.41,14.48,47.84626,-54.09684
2019-03-26 19:40:00+00:00,220.7731,0.56,14.48,47.84626,-54.09684
2019-03-26 19:50:00+00:00,216.4481,0.61,14.4,47.84626,-54.09684
2019-03-26 20:00:00+00:00,217.4781,0.52,14.32,47.84626,-54.09684
2019-03-26 20:10:00+00:00,207.3381,0.6,14.24,47.84626,-54.09684
2019-03-26 20:20:00+00:00,197.0281,0.6,14.24,47.84626,-54.09684
2019-03-26 20:30:00+00:00,195.8798,0.7,14.24,47.84626,-54.09684
2019-03-26 20:40:00+00:00,195.1815,0.71,14.32,47.84626,-54.09684
2019-03-26 20:50:00+00:00,191.1865,0.7,14.32,47.84626,-54.09684
2019-03-26 21:00:00+00:00,192.7764,0.69,14.24,47.84626,-54.09684
2019-03-26 21:10:00+00:00,197.5181,0.7,14.08,47.84626,-54.09684
2019-03-26 21:20:00+00:00,197.1831,0.78,14.08,47.84626,-54.09684
2019-03-26 21:30:00+00:00,201.2415,0.57,14.0,47.84626,-54.09684
2019-03-26 21:40:00+00:00,210.3898,0.49,14.0,47.84626,-54.09684
2019-03-26 21:50:00+00:00,210.9581,0.59,13.92,47.84626,-54.09684
2019-03-26 22:00:00+00:00,210.4948,0.5,13.76,47.84626,-54.09684
2019-03-26 22:10:00+00:00,219.0981,0.5,13.6,47.84626,-54.09684
2019-03-26 22:20:00+00:00,224.0514,0.5,13.6,47.84626,-54.09684
2019-03-26 22:30:00+00:00,221.8481,0.5,13.53,47.84626,-54.09684
2019-03-26 22:40:00+00:00,226.6548,0.5,13.53,47.84626,-54.09684
2019-03-26 22:50:00+00:00,235.0364,0.58,13.44,47.84626,-54.09684
2019-03-26 23:00:00+00:00,231.5931,0.79,13.37,47.84626,-54.09684
2019-03-26 23:10:00+00:00,227.9831,0.8,13.21,47.84626,-54.09684
2019-03-26 23:20:00+00:00,234.3448,0.52,13.21,47.84626,-54.09684
2019-03-26 23:30:00+00:00,241.0481,0.78,13.21,47.84626,-54.09684
2019-03-26 23:40:00+00:00,240.0681,0.8,13.21,47.84626,-54.09684
2019-03-26 23:50:00+00:00,239.7397,0.89,13.13,47.84626,-54.09684
